Redmond, OR

9:09 AM PST on November 13, 2019 (GMT -0800)
Roberts Field Airport

Weather History for KRDM - August, 2019

Change the Weather History Date:

Friday, August 30, 2019

  Actual Average Record
Temperature  
Mean Temperature 76 °F 62 °F  
Max Temperature 93 °F 81 °F 101 °F (1967)
Min Temperature 58 °F 42 °F 31 °F (1965)
Degree Days  
Heating Degree Days 0 4  
Month to date heating degree days 14 76  
Since 1 June heating degree days 196 362  
Since 1 July heating degree days 47 145  
Cooling Degree Days 11 1  
Month to date cooling degree days 144 79  
Year to date cooling degree days 250 205  
Since 1 June cooling degree days 250 200  
Growing Degree Days 24 (Base 50)    
Moisture  
Dew Point 51 °F    
Average Humidity 50    
Maximum Humidity 84    
Minimum Humidity 16    
Precipitation  
Precipitation 0.00 in 0.01 in 0.69 in (1989)
Month to date precipitation T 0.48  
Year to date precipitation 7.46 5.71  
Sea Level Pressure  
Sea Level Pressure 29.98 in    
Wind  
Wind Speed 5 mph (SW)    
Max Wind Speed 15 mph    
Max Gust Speed 18 mph    
Visibility 10 miles    
Events      
T = Trace of Precipitation, MM = Missing Value Source: NWS Daily Summary

Daily Weather History Graph

Daily Weather History Graph

Search for Another Location

Airport or City:

Astronomy

Aug. 30, 2019 Rise Set
Actual Time 6:25 AM PDT 7:44 PM PDT
Civil Twilight 5:55 AM PDT 8:14 PM PDT
Nautical Twilight 5:18 AM PDT 8:50 PM PDT
Astronomical Twilight 4:40 AM PDT 9:28 PM PDT
Moon 6:30 AM PDT (8/30) 8:24 PM PDT (8/30)
Length of Visible Light 14h 19m
Length of Day
13h 19m
New Moon, 0% of the Moon is Illuminated
Aug 30
New Moon
Sep 5
First Quarter
Sep 13
Full
Sep 21
Last Quarter
Sep 28
New

Hourly Weather History & Observations

Time (PDT) Temp. Heat Index Dew Point Humidity Pressure Visibility Wind Dir Wind Speed Gust Speed Precip Events Conditions
12:56 AM 66.0 °F - 55.0 °F 68% 29.97 in 10.0 mi SSE 3.5 mph - 0.00 in   Clear
1:56 AM 64.9 °F - 55.9 °F 73% 29.97 in 10.0 mi SSE 4.6 mph - N/A   Clear
2:56 AM 63.0 °F - 55.9 °F 78% 29.97 in 10.0 mi South 5.8 mph - N/A   Clear
3:56 AM 61.0 °F - 55.0 °F 81% 29.99 in 10.0 mi South 5.8 mph - N/A   Clear
4:56 AM 59.0 °F - 54.0 °F 83% 30.00 in 10.0 mi SSE 4.6 mph - N/A   Clear
5:56 AM 59.0 °F - 54.0 °F 83% 30.00 in 10.0 mi SSE 4.6 mph - N/A   Clear
6:56 AM 60.1 °F - 55.0 °F 83% 30.01 in 10.0 mi South 4.6 mph - N/A   Clear
7:56 AM 64.9 °F - 55.9 °F 73% 30.03 in 10.0 mi Calm Calm - N/A   Clear
8:56 AM 70.0 °F - 57.0 °F 63% 30.03 in 10.0 mi Variable 3.5 mph - N/A   Clear
9:56 AM 73.9 °F - 57.9 °F 57% 30.02 in 10.0 mi Calm Calm - N/A   Clear
10:56 AM 78.1 °F - 57.0 °F 48% 30.01 in 10.0 mi Variable 4.6 mph - N/A   Clear
11:56 AM 81.0 °F 80.7 °F 55.0 °F 41% 30.00 in 10.0 mi Variable 3.5 mph - N/A   Clear
12:56 PM 84.0 °F 82.6 °F 54.0 °F 35% 29.98 in 10.0 mi North 8.1 mph - N/A   Clear
1:56 PM 88.0 °F - 48.9 °F 26% 29.96 in 10.0 mi Variable 5.8 mph - N/A   Clear
2:56 PM 88.0 °F - 41.0 °F 19% 29.94 in 10.0 mi Calm Calm - N/A   Clear
3:56 PM 90.0 °F - 37.0 °F 15% 29.92 in 10.0 mi Variable 4.6 mph - N/A   Clear
4:56 PM 89.1 °F - 37.9 °F 16% 29.92 in 10.0 mi Variable 5.8 mph - N/A   Clear
5:56 PM 89.1 °F - 42.1 °F 19% 29.91 in 10.0 mi Variable 6.9 mph - N/A   Clear
6:02 PM 90.0 °F - 43.0 °F 19% 29.99 in 10.0 mi NNW 8.1 mph - N/A   Clear
6:56 PM 86.0 °F - 48.0 °F 27% 29.92 in 10.0 mi NW 9.2 mph - N/A   Clear
7:56 PM 80.1 °F - 52.0 °F 38% 29.94 in 10.0 mi NW 11.5 mph - N/A   Clear
8:56 PM 75.9 °F - 52.0 °F 43% 29.96 in 10.0 mi NW 6.9 mph - N/A   Clear
9:56 PM 73.0 °F - 51.1 °F 46% 29.98 in 10.0 mi NW 8.1 mph - N/A   Clear
10:56 PM 71.1 °F - 50.0 °F 47% 29.98 in 10.0 mi West 6.9 mph - N/A   Clear
11:56 PM 66.0 °F - 48.9 °F 54% 29.98 in 10.0 mi WSW 4.6 mph - N/A   Clear